Regional Weather Roundup
Issued by NWS Wakefield, VA

Home | Current Version | Previous Version | Text Only | Print | Product List | Glossary Off
Versions: 1 2 3 4 5 6 7 8 9 10 11 12 13 14 15 16 17 18 19 20 21 22 23 24 25 26 27 28 29 30 31 32 33 34 35 36 37 38 39 40 41 42 43 44 45 46 47 48 49 50

000
ASUS41 KAKQ 251715
RWRAKQ

REGIONAL WEATHER ROUNDUP
NATIONAL WEATHER SERVICE WAKEFIELD VA
100 PM EDT WED MAY 25 2016

Note: "fair" indicates few or no clouds below 12,000 feet with no
significant weather and/or obstructions to visibility. * = Denotes
station may not report precipitation (e.g., rain,snow,etc.),
thunder or fog.

VAZ042-051-052>054-056-251800-
NORTHERN VIRGINIA

CITY           SKY/WX    TMP DP  RH WIND       PRES   REMARKS
WASH NATIONAL  CLOUDY    84  52  33 VRB3      30.15S
DULLES         FAIR      82  50  32 W7        30.16S
FORT BELVOIR   FAIR      84  51  31 SW5       30.15S
QUANTICO       PTSUNNY   77  61  57 SW7       30.17R
FREDERICKSBRG* FAIR      84  55  37 SW10      30.16S
STAFFORD*      FAIR      82  50  32 CALM      30.20F
WARRENTON      FAIR      84  42  23 CALM      30.17S
CULPEPER*      FAIR      83  52  34 CALM      30.17F
MANASSAS*      MOSUNNY   82  48  30 NW8       30.16S
LEESBURG*      FAIR      84  55  37 W9        30.18R
WINCHESTER     FAIR      81  50  34 SW8       30.18S
FRONT ROYAL*   FAIR      81  54  39 S5        30.18S
LURAY*         FAIR      79  52  38 SW6       30.19F
$$

VAZ048-049-060>072-079>083-251800-
CENTRAL AND SOUTH CENTRAL VIRGINIA

CITY           SKY/WX    TMP DP  RH WIND       PRES   REMARKS
RICHMOND       CLOUDY    83  54  36 SW9       30.17F
CHESTERFIELD*  FAIR      84  52  32 SW6       30.19F
PETERSBURG*    FAIR      85  52  32 W3        30.18F
HANOVER        FAIR      83  51  33 W9        30.18F
TAPPAHANNOCK*  FAIR      85  51  30 SW6       30.17S
QUINTON*       FAIR      83  55  38 NW3       30.16F
CHARLOTTSVILLE FAIR      82  49  31 W9        30.17F
GORDONSVILLE*  FAIR      82  53  37 CALM      30.17F
ORANGE*        FAIR      82  52  34 SW3       30.20S
LOUISA*        FAIR      84  55  37 S5        30.17F
BUMPASS*       FAIR      82  56  41 W7        30.17F
FARMVILLE*     FAIR      83  51  32 SW6       30.17F
CREWE*         FAIR      83  58  42 SW5       30.19F
FORT PICKETT*  NOT AVBL
CHASE CITY*    FAIR      82  50  32 CALM      30.20F
CLARKSVILLE*   FAIR      81  54  39 CALM      30.20F
SOUTH HILL*    FAIR      82  58  42 W3        30.25F
LAWRENCEVILLE* FAIR      82  58  44 SW5       30.19S
EMPORIA*       FAIR      82  57  42 S3        30.20S
$$

VAZ088>098-251800-
SOUTHEAST VIRGINIA

CITY           SKY/WX    TMP DP  RH WIND       PRES   REMARKS
NORFOLK        FAIR      85  55  35 CALM      30.16F
VIRGINIA BEACH FAIR      89  52  28 VRB3      30.16F
NORFOLK NAVAL  FAIR      85  52  32 VRB5      30.18F
WEST POINT*    FAIR      84  50  30 CALM      30.18F
SALUDA*        FAIR      81  57  43 N5        30.15F
NEWPORT NEWS     N/A     83  55  38 MISG      30.17F
LANGLEY AFB    MOSUNNY   83  58  42 S7        30.16F
FORT EUSTIS    FAIR      83  68  60 S5        30.15F
WILLIAMSBURG*  FAIR      88  57  35 CALM      30.18S
HR EXEC AP*    FAIR      86  61  42 CALM      30.18F
FRANKLIN*      FAIR      83  59  43 S8        30.18F
US460-WAKEFLD  FAIR      83  59  44 VRB3      30.17F
$$

VAZ020-022-025-037-045-251800-
WEST CENTRAL AND SOUTHWEST VIRGINIA

CITY           SKY/WX    TMP DP  RH WIND       PRES   REMARKS
STAUNTON*      FAIR      76  52  42 SE5       30.23S
WAYNESBORO*    FAIR      77  49  36 SW8G16    30.22F
HOT SPRINGS VA FAIR      69  49  48 SW7       30.31F
LYNCHBURG      FAIR      80  53  39 VRB5      30.22F
DANVILLE       FAIR      82  57  42 CALM      30.20F
SOUTH BOSTON*  FAIR      83  55  38 SW5       30.20F
MARTINSVILLE   FAIR      80  52  37 SE3       30.24F
ROANOKE        FAIR      80  54  40 MISG      30.24F
BLACKSBURG     FAIR      76  52  43 SW7       30.30F
DUBLIN*        FAIR      78  51  38 S7        30.28F
MARION*        FAIR      76  54  46 SW9       30.30F
HILLSVILLE*    FAIR      73  52  47 CALM      30.29F
RICHLANDS*     FAIR      75  49  38 SW6       30.28F
WISE*          FAIR      77  46  33 W9        30.29F
ABINGDON*      FAIR      79  55  43 W8        30.27F
$$

MDZ021>025-VAZ099-100-251800-
SOUTHERN MARYLAND AND THE DELMARVA PENINSULA

CITY           SKY/WX    TMP DP  RH WIND       PRES   REMARKS
PATUXENT RIVER CLOUDY    82  56  40 VRB6      30.15S
BAY BRIDGE APT MOSUNNY   84  52  32 W5        30.14S
LEONARDTOWN    MOSUNNY   82  50  32 SW10      30.17S
DOVER          CLOUDY    84  57  38 W13       30.11S
GEORGETOWN     SUNNY     85  46  25 W8        30.14S
EASTON         PTSUNNY   84  57  39 W7        30.18S
CAMBRIDGE      SUNNY     82  50  32 NW5       30.15S
SALISBURY      SUNNY     85  49  28 W8        30.14S
OCEAN CITY     SUNNY     77  61  57 S8        30.14S
WALLOPS ISLAND PTSUNNY   85  51  31 NW8       30.15F
ACCOMACK*      FAIR      82  46  28 NW5       30.16S
$$

NCZ012>017-030>032-251800-
NORTH CENTRAL AND EASTERN NORTH CAROLINA

CITY           SKY/WX    TMP DP  RH WIND       PRES   REMARKS
ROANOKE RAPIDS FAIR      82  59  44 SW8       30.19F
RALEIGH        MOSUNNY   85  60  42 SW5       30.21F
ELIZABETH CITY SUNNY     85  61  44 W9        30.18F
AHOSKIE*       SUNNY     83  60  46 CALM      30.19F
EDENTON*       SUNNY     83  64  52 W6        30.20F
CURRITUCK*     SUNNY     84  57  39 W8        30.19S
KILL DEVIL HLS SUNNY     84  57  39 W7        30.19F
MANTEO         SUNNY     82  60  46 W5        30.20F
CAPE HATTERAS  SUNNY     80  62  54 W8        30.23S
TARBORO*       FAIR      85  61  44 W8        30.20F
GOLDSBORO      MOSUNNY   86  60  42 VRB1      30.20F
WASHINGTON     SUNNY     83  60  45 W7        30.20F
GREENVILLE     SUNNY     84  61  45 W8        30.21F
NEW BERN       SUNNY     85  57  38 VRB3      30.22F
WILMINGTON     MOSUNNY   83  57  41 S6        30.22F
$$

VAZ048-251800-
ELSEWHERE

CITY           SKY/WX    TMP DP  RH WIND       PRES   REMARKS
HARRISBURG PA  SUNNY     84  50  30 NW8       30.12F
BALTIMORE      PTSUNNY   83  52  34 W10       30.13S
ANNAPOLIS      CLOUDY    83  49  30 W7        30.14R
ANDREWS AFB    FAIR      83  51  32 VRB5      30.15S
PHILADELPHIA   CLOUDY    84  40  21 SW13      30.11S
HENDERSON NC   SUNNY     80  57  44 SW5       30.21F
GREENSBORO     MOSUNNY   82  51  34 VRB6      30.22F
ROCKY MOUNT    SUNNY     85  57  38 W8        30.20F
$$

VAZ100-251800-
MARINE

STATION/POSITION TIME  TEMP    WIND        PRES    WAVE   SWELL
                       AIR SEA DIR/SP/G            HT/PER HT/PER
                 (UTC) (F)     (DEG/KT/KT) (MB)    (FT/S) (FT/S)
BRANDYWINE LGT   1600   73     170/  2/  2 1020.5R
CAPE MAY NJ      1600   73 65  250/  3/  3 1020.3R
LEWES DE         1600   77 60   10/  4/  4 1020.3S
15NM E FENWICK I 1650   64 59              1020.8R   2/ 9
OCEAN-CITY-INLET 1600   74 59  180/  6/  8 1021.1R
WACHAPREAGUE VA  1600   84 68  260/  2/  7 1020.9F
THOMAS POINT MD  1700   74 64  170/  8/  9 1022.0R
GOOSES REEF MD   1600   70 67  150/  4/  6 1021.9R   0
COVE POINT MD    1600   72     190/  6/  6 1021.6R
SOLOMONS ISLAND  1600   76 63   90/  2/  3   N/A
BISHOPS HEAD MD  1600   71 70  230/  8/  8 1021.4R
PINEY POINT MD   1600          320/  8/  9   N/A
POTOMAC MD       1600   69 67  310/  4/  4 1020.6R   0
CAMBRIDGE MD     1600   78 64  290/  4/  6 1020.0S
LEWISETTA VA     1600   79 67   40/  3/  4 1021.1R
RAPPAHANNOCK LGT 1600          190/  7/  7 1022.2F
STINGRAY PT      1600   69 66  150/  6/  8 1022.0S   0
YORK RVR RNG VA  1606   73     190/  2/  3 1021.3F
YORKTOWN VA      1600   77 65   40/  2/  2 1021.5F
JAMESTOWN VA     1600   73 70  310/  4/  4   N/A     0
DOMINION TERM VA 1600   75     230/  2/  3 1022.1F
KIPTOPEKE VA     1600      66  230/  2/  3   N/A
CHES BAY BRIDGE  1600   74 65  270/  5/  6 1021.9F
CAPE HENRY VA    1600   77     310/  7/  9   N/A
CHESAPEAKE LGHT  1600   70     290/  9/  9 1022.6F
WILLOUBY STN VA  1600   74     240/  6/  6 1023.0S
CAPE HENRY BUOY  1612      63                N/A     2/11
1ST LANDING BUOY 1600   69 65  260/  4/  4 1021.9S   1/ 4
CAPE CHARLES BUO 1626      64                N/A     1/11   2/11
OFFSHORE WE BUOY 1621      62                N/A     2/ 9   2/ 9
64NM E OF VA BCH 1650   62 59  230/  6/  6 1022.0F   2/ 6   2/ 6
DUCK PIER NC     1600   75 61  240/ 12/ 16 1021.8F
44100 DUCK FRF   1624      63                N/A     2/ 8
44056 DUCK FRF   1611      62                N/A     2/10
OREGON INLET NC  1600   74 69  180/  7/  8 1022.7F
HATTERAS NC      1600   75 68  240/  7/  9 1023.1F
DIAMOND SHLS NC  1650   69 70  250/  8/  8 1023.6F   3/ 9   2/ 9
CAPE LOOKOUT NC1F1C2F2C3F3C4F4C5F5C6F6C7F7C8M1C9!


USA.gov is the U.S. government's official web portal to all federal, state and local government web resources and services.